www.pogodaiklimat.ru

Погода и климат >> Архив погоды >> Таиланд >> Пхетчабун


ПОГОДА в Пхетчабуне

  • Прогноз погоды в Пхетчабуне
  • Монитор погоды в Пхетчабуне

АРХИВ ПОГОДЫ в Пхетчабуне

Время (UTC), дата Ветер
(напр.,м/с)
 
Видим.   Явления Облачность Т
(С)
Тd
(С)
f
(%)
Тe
(С)
Тes
(С)
Комфортность P
(гПа)
Po
(гПа)
Тmin
(С)
Tmax
(С)
R
(мм)
R24
(мм)
S
(см)
00 14.04 штиль 0 7000 м дымка ясно +27.0 +24.1 84 +37 +39 очень
душно
1008.3 995.1 +26.4
03 14.04 штиль 0 7000 м мгла ясно +34.4 +24.2 55 +46 +67 опасность
перегрева
1009.5 996.5
06 14.04 ЮВ 3 8000 м мгла 1/1 600 м
[Cu med, cong]
+38.5 +24.4 45 +50 +66 опасность
перегрева
1006.7 994.0
09 14.04 Ю 2 8000 м мгла 3/3 600 м
[Cu med, cong]
+40.2 +21.9 35 +48 +53 опасность
перегрева
1002.6 990.0
12 14.04 Ю 3 8000 м мгла 8/5 600 м
[Cb cap Ci ing]
+34.0 +20.6 46 +41 +41 опасность
перегрева
1005.1 992.2 +41.1
15 14.04 штиль 0 8000 м дымка 3/1 600 м
[Sc Cs]
+29.0 +22.5 68 +38 +38 очень
душно
1007.0 993.9
18 14.04 штиль 0 8000 м дымка ясно +28.1 +22.2 70 +37 +37 очень
душно
1007.0 993.9
21 14.04 штиль 0 7000 м дымка ясно +27.5 +23.1 77 +37 +37 очень
душно
1006.4 993.2
00 15.04 штиль 0 8000 м дымка ясно +26.6 +23.5 83 +36 +38 очень
душно
1008.4 995.2 +25.8
03 15.04 штиль 0 8000 м мгла 3/0
[Cs]
+33.0 +24.8 62 +46 +66 опасность
перегрева
1009.8 996.8
06 15.04 штиль 0 8000 м мгла 3/1 600 м
[Cu med, cong Cs]
+38.5 +24.4 45 +50 +75 опасность
перегрева
1006.5 993.8
09 15.04 штиль 0 8000 м мгла 3/1 600 м
[Cu med, cong Cs]
+40.0 +22.9 38 +49 +58 опасность
перегрева
1003.5 990.9
12 15.04 штиль 0 8000 м мгла 3/1 600 м
[Cb cap Cs]
+36.3 +24.6 51 +49 +49 опасность
перегрева
1003.8 991.0 +40.3
15 15.04 штиль 0 8000 м мгла 3/0
[Cs]
+33.0 +24.5 61 +46 +46 опасность
перегрева
1008.0 995.0
18 15.04 штиль 0 8000 м дымка {гроза} 4/1 600 м
[Sc Cs]
+30.0 +24.3 72 +42 +42 опасность
перегрева
1006.4 993.4
21 15.04 штиль 0 8000 м дымка 4/0
[Cs]
+27.7 +23.8 79 +38 +38 очень
душно
1006.8 993.6
00 16.04 штиль 0 7000 м дымка 4/1 600 м
[Cu hum Cs]
+27.6 +24.9 85 +39 +41 очень
душно
1008.3 995.1 +27.0
03 16.04 штиль 0 8000 м мгла 3/0
[Ac trans Cs]
+33.3 +23.5 57 +44 +63 опасность
перегрева
1009.8 996.8
06 16.04 штиль 0 8000 м мгла 3/1 600 м
[Cb cap Ci ing]
+38.8 +23.5 42 +49 +74 опасность
перегрева
1006.2 993.5
09 16.04 штиль 0 8000 м мгла {гроза} 4/1 600 м
[Cb cap Cs]
+38.0 +22.4 41 +47 +55 опасность
перегрева
1003.3 990.6
12 16.04 штиль 0 8000 м мгла {гроза} 10/3 600 м
[Cb cap Ac trans Cs]
+32.5 +22.1 54 +41 +41 опасность
перегрева
1005.3 992.3 +39.9
15 16.04 штиль 0 7000 м дымка 5/1 600 м
[Cu hum Cs]
+30.6 +23.8 67 +42 +42 опасность
перегрева
1007.4 994.3
18 16.04 штиль 0 6000 м дымка 3/1 600 м
[Cu hum Cs]
+29.0 +24.1 75 +40 +40 очень
душно
1006.8 993.7
21 16.04 штиль 0 6000 м дымка ясно +27.4 +23.9 81 +38 +38 очень
душно
1006.4 993.3
00 17.04 штиль 0 6000 м дымка 3/0
[Cs]
+26.7 +23.8 84 +37 +38 очень
душно
1008.4 995.2 +25.9
03 17.04 В 4 7000 м мгла ясно +34.7 +23.0 51 +45 +55 опасность
перегрева
1009.5 996.6
06 17.04 ЮВ 2 8000 м мгла 1/1 600 м
[Cu med, cong]
+40.0 +24.3 41 +51 +70 опасность
перегрева
1007.1 994.4
09 17.04 ЮВ 2 8000 м мгла 1/1 600 м
[Cb calv]
+41.1 +24.6 39 +52 +59 опасность
перегрева
1002.7 990.1
12 17.04 штиль 0 8000 м мгла 4/1 600 м
[Cu hum Cs]
+36.6 +23.8 48 +48 +48 опасность
перегрева
1003.0 990.3 +41.8
15 17.04 штиль 0 7000 м мгла 3/1 600 м
[Cu med, cong Cs]
+33.0 +23.7 58 +44 +44 опасность
перегрева
1006.3 993.3
18 17.04 штиль 0 6000 м мгла 3/0
[Cs]
+31.6 +24.0 64 +43 +43 опасность
перегрева
1005.6 992.6
21 17.04 штиль 0 6000 м дымка ясно +30.3 +23.5 67 +41 +41 опасность
перегрева
1004.5 991.5
00 18.04 штиль 0 8000 м дымка 3/0
[Cs]
+29.5 +22.9 68 +39 +41 очень
душно
1006.8 993.7 +29.0
03 18.04 штиль 0 8000 м мгла 3/0
[Cs]
+35.3 +24.2 53 +47 +67 опасность
перегрева
1008.4 995.6
06 18.04 штиль 0 8000 м мгла 4/1 600 м
[Cu med, cong Cs]
+39.0 +23.9 42 +50 +74 опасность
перегрева
1005.2 992.6
09 18.04 штиль 0 8000 м мгла {гроза} 4/1 600 м
[Cu med, cong Cs]
+39.0 +23.4 41 +49 +57 опасность
перегрева
1001.6 989.0 0.2
12 18.04 штиль 0 8000 м мгла {гроза} 6/3 600 м
[Cb cap Cs]
+32.5 +22.3 55 +42 +42 опасность
перегрева
1004.1 991.2 +39.6 0.2
15 18.04 штиль 0 8000 м мгла 3/0
[Cs]
+31.2 +22.1 58 +40 +40 очень
душно
1006.4 993.4
18 18.04 штиль 0 6000 м дымка 3/0
[Cs]
+29.0 +23.2 71 +39 +39 очень
душно
1005.1 992.0
21 18.04 штиль 0 6000 м дымка 3/0
[Cs]
+28.7 +24.1 76 +40 +40 очень
душно
1004.2 991.1
00 19.04 штиль 0 6000 м дымка ясно +27.7 +24.1 81 +39 +40 очень
душно
1005.3 992.2 +27.2 0.2
03 19.04 штиль 0 8000 м мгла ясно +34.4 +25.7 61 +50 +71 опасность
перегрева
1006.6 993.7
06 19.04 ЮВ 3 8000 м мгла 1/1 600 м
[Cu med, cong]
+38.8 +25.1 46 +52 +68 опасность
перегрева
1004.1 991.4
09 19.04 Ю 3 8000 м мгла 1/1 600 м
[Cu med, cong]
+41.2 +22.3 34 +49 +55 опасность
перегрева
1000.0 987.5
12 19.04 Ю 2 8000 м мгла 4/3 600 м
[Cu med, cong Cs]
+36.5 +22.8 45 +46 +46 опасность
перегрева
1001.2 988.5 +41.6
15 19.04 штиль 0 8000 м мгла ясно +32.2 +22.6 57 +42 +42 опасность
перегрева
1004.1 991.2
18 19.04 штиль 0 7000 м мгла ясно +30.5 +22.4 62 +40 +40 очень
душно
1003.6 990.6
21 19.04 штиль 0 6000 м дымка ясно +29.5 +23.7 71 +40 +40 очень
душно
1002.7 989.6
00 20.04 штиль 0 7000 м дымка ясно +28.0 +23.6 77 +38 +40 очень
душно
1004.1 991.0 +27.4
03 20.04 ЮВ 2 8000 м мгла ясно +35.5 +24.2 52 +47 +63 опасность
перегрева
1004.9 992.1
06 20.04 штиль 0 8000 м мгла 1/1 600 м
[Cu med, cong]
+39.5 +24.8 43 +52 +77 опасность
перегрева
1002.4 989.7
09 20.04 ЮЗ 2 8000 м мгла 3/3 600 м
[Cu med, cong]
+41.0 +21.6 33 +48 +53 опасность
перегрева
998.7 986.2
12 20.04 штиль 0 8000 м мгла 3/0
[Cs]
+37.5 +22.0 41 +46 +46 опасность
перегрева
999.4 986.7 +42.1
15 20.04 штиль 0 8000 м мгла ясно +33.0 +22.0 52 +41 +41 опасность
перегрева
1001.9 989.1
18 20.04 штиль 0 7000 м мгла ясно +29.6 +20.6 58 +36 +36 очень
душно
1001.9 988.9
21 20.04 штиль 0 6000 м мгла ясно +28.5 +20.1 60 +35 +35 очень
душно
1001.8 988.7

 

Местоположение метеостанции Пхетчабун (Таиланд): широта 16.43 долгота 101.15 высота над уровнем моря 116 м.

В архиве по умолчанию представлена погода в Пхетчабуне за последнюю неделю. Архивные данные за месяц целиком и за предыдущие месяцы, начиная с января 2011 года, Вы можете получить, выбрав интересующий диапазон дат из раскрывающегося списка и нажав кнопку "Ввод!".


*Определитесь, кто Вы:
робот инопланетянин человек

Внимание! Время в таблицах - всемирное. Для получения местного времени необходимо прибавить поправку, которая равна 7 ч.

Смотрите также архив погоды в соседних городах и на ближайших метеорологических станциях:

Погода в Ломсаке (Таиланд) (39 км)
Погода в Вичан Бури (Таиланд) (89 км)
Погода в Пичит Агромете (Таиланд) (93 км)
Погода в Пхитсанулоке (Таиланд) (103 км)
Погода в Чайяпхуме (Таиланд) (117 км)
Погода в Лоей Агромете (Таиланд) (124 км)
Погода в Накхон Саван (Таиланд) (127 км)
Погода в Буа Чум (Таиланд) (129 км)
Погода в Лоэй (Таиланд) (129 км)
Погода в Такфа Агромете (Таиланд) (139 км)

Пояснения к столбцам:

Ветер - указаны скорость ветра в м/с - средняя за 10 мин, порывы в срок и между сроками (в фигурных скобках) и направление, откуда дует ветер: С - северный, СВ - северо-восточный, В - восточный, ЮВ - юго-восточный, Ю - южный, ЮЗ - юго-западный, З - западный, СЗ - северо-западный.
Видимость - горизонтальная дальность видимости в метрах или километрах. При видимости от 1 до 10 км при отсутствии осадков обычно наблюдается дымка, при ухудшении видимости до 1 км и менее - туман. В сухую погоду видимость может ухудшаться дымом, пылью или мглою.
Явления - указаны атмосферные явления, наблюдавшиеся в срок или в последний час перед сроком; фигурными скобками обозначены явления, наблюдавшиеся между сроками (за 1-3 часа до срока); квадратными скобками обозначены град или гололедные отложения с указанием их диаметра в мм.
Облачность - указаны через наклонную черту общая и нижняя облачность в баллах и высота нижней границы облаков в метрах; квадратными скобками обозначены формы облаков: Ci - перистые, Cs - перисто-слоистые, Cc - перисто-кучевые, Ac - высококучевые, As - высокослоистые, Sc - слоисто-кучевые, Ns - слоисто-дождевые, Cu - кучевые, Cb - кучево-дождевые. Подробнее классификацию облаков см. в Атласе облаков (PDF).
T - Температура воздуха - температура, измеренная на высоте 2 м над землей.
Td - Температура точки росы - температура, при понижении до которой содержащийся в воздухе водяной пар достигнет насыщения.
f - Относительная влажность воздуха - влажноcть воздуха, измеренная на высоте 2 м над землей.
Te - Эффективная температура - температура, которую ощущает одетый по сезону человек в тени. Характеристика душности погоды. При расчете учитывается влияние влажности воздуха и скорости ветра на теплоощущения человека.
Tes - Эффективная температура на солнце - температура, которую ощущает человек, с поправкой на солнечный нагрев. Характеристика знойности погоды. Зависит от высоты солнца над горизонтом, облачности и скорости ветра. Ночью, в пасмурную погоду, а также при ветре 12 м/с и более поправка равна нулю.
P - Атмосферное давление - приведенное к уровню моря атмосферное давление.
Po - Атмосферное давление - измеренное на уровне метеостанции атмосферное давление.
Tmin - Минимальная температура - минимум температуры воздуха на высоте 2 м над землей.
Tmax - Максимальная температура - максимум температуры воздуха на высоте 2 м над землей.
R - Количество осадков - Количество выпавших осадков за период времени, мм. При наведении курсора мыши на число - период времени, за который выпало указанное количество осадков.
R24 - Количество осадков - Количество выпавших осадков за 24 часа, мм.
S - Снежный покров - Высота снежного покрова, см. При наведении курсора мыши на число - состояние снежного покрова и степень покрытия местности в баллах.